Temp_Advection
nan nan nan nan nan nan nan nan nan nan nan nan nan nan nan nan nan nan nan nan nan nan nan nan nan nan nan nan nan nan nan nan nan nan nan nan nan nan nan nan nan nan nan nan
nan -0 -0 0 0 0 0 0 -0 -0 -0 0 0 -0 -0 -0 -1 -1 -0 -1 -1 -1 0 1 0 1 0 -0 0 1 0 -1 -0 1 1 1 1 1 1 1 1 0 0 nan
nan -0 -0 0 0 0 0 0 0 -0 -0 0 0 -0 -0 -0 -0 -1 -0 -0 -1 -1 -0 1 -0 0 0 1 1 1 1 0 0 0 0 1 0 0 1 1 1 0 0 nan
nan -0 0 0 -0 0 -0 -0 0 0 -0 -0 -0 -0 -0 -0 -0 -0 -1 -2 -1 -1 -0 0 -0 0 1 2 1 1 0 0 1 1 1 1 0 1 0 0 1 0 0 nan
nan -0 0 -0 -0 -0 0 -0 -0 -0 -0 -0 -0 0 -0 -0 -0 -0 -1 -2 -2 -1 0 0 1 2 2 -1 -3 -2 -1 0 1 2 2 1 2 1 1 1 0 0 -0 nan
nan -0 -0 0 -0 0 0 -0 -0 -0 -0 0 -0 0 -0 -0 -0 0 -0 -1 -2 -0 1 1 1 1 -1 -2 -1 0 1 1 2 1 1 1 1 1 1 -0 -0 0 0 nan
nan -0 -0 0 0 -0 -1 -0 0 -0 0 0 0 0 0 0 -0 0 0 -0 -0 0 0 1 1 -0 1 1 2 2 1 3 2 1 0 1 0 1 0 -0 0 1 1 nan
nan -1 -0 -0 0 0 -0 -0 -0 0 0 -0 0 0 0 0 0 0 0 0 1 0 1 1 -0 0 -0 2 2 1 3 3 0 0 0 -0 0 1 -0 -0 1 1 0 nan
nan -0 -0 -0 -0 -0 0 -0 -0 -0 -0 -0 -0 -0 -0 0 -0 -0 0 -0 0 0 0 1 0 1 0 1 -0 1 1 -0 0 0 -0 -0 1 1 -0 0 0 -0 -0 nan
nan 0 -0 -0 -0 -0 -0 -0 0 0 0 0 -0 -0 -0 -1 -0 -0 -0 -0 1 1 1 0 -0 0 0 0 0 0 0 0 0 0 0 0 0 -0 0 -0 -0 -0 0 nan
nan -0 -0 -0 -0 0 0 0 -0 -0 -0 0 -0 -0 -0 -0 -0 -0 -0 0 0 1 0 0 0 0 0 0 0 0 -0 -0 0 0 -0 -0 -0 -0 -0 -0 0 0 0 nan
nan -0 -0 -1 -0 -0 -0 0 -0 -0 -0 -0 0 0 -0 -0 -0 -0 -0 0 1 1 0 0 0 0 0 0 0 0 0 0 0 0 0 0 0 0 0 0 0 0 1 nan
nan 0 0 -0 -0 -0 -0 -0 -0 0 -0 0 0 -0 -0 0 0 0 0 0 0 0 0 0 0 0 0 0 0 0 0 0 0 0 0 0 0 0 0 0 0 1 0 nan
nan -0 -0 0 -0 -0 -0 -0 -0 0 -0 -0 -0 -0 0 -0 0 0 0 0 -0 -0 0 0 0 0 0 0 0 0 0 0 0 0 0 0 0 0 0 0 0 0 0 nan
nan 0 0 -0 -0 -0 -0 -0 -0 -0 0 -0 -0 0 0 0 0 -0 -0 -0 -0 -0 0 0 0 0 0 0 0 0 0 0 0 0 0 0 0 0 0 0 0 0 0 nan
nan -0 -0 -0 -0 0 -0 -0 -0 -0 -0 0 -0 0 0 -0 0 -0 -0 -0 -0 -0 -0 -0 0 0 0 0 -0 -0 0 0 0 0 0 0 0 0 0 0 0 0 0 nan
nan 0 -0 -0 -0 -0 -0 -0 0 -0 0 0 -0 0 -0 -0 0 -0 -0 -0 -0 -0 -0 -0 -0 -0 -0 0 0 0 0 0 0 0 0 0 0 0 -0 -0 -0 -0 -0 nan
nan -0 -0 -0 -0 -0 -0 -0 0 -0 -0 0 0 0 0 -0 -0 -0 -0 -0 -0 -0 -0 -0 -0 -0 -0 -0 0 0 0 0 0 -0 -0 -0 -0 -0 -0 -0 -0 -0 -0 nan
nan 0 -0 -0 -0 -1 -0 -0 -0 0 0 0 0 0 0 0 0 -0 -0 -0 0 0 -0 -0 0 0 -0 0 0 0 0 0 -0 -0 -0 -0 -0 -0 -0 -0 -0 -0 -0 nan
nan 0 0 0 0 -0 -0 -0 -0 -0 0 -0 -0 -0 -0 0 -0 -0 -0 0 0 0 0 0 0 0 0 0 0 0 0 0 -0 -0 -0 -0 -0 -0 -0 -0 -0 -0 -0 nan
nan 0 0 0 -0 -1 -1 -0 0 -0 -0 -0 -0 -1 -1 -0 -1 -0 0 0 0 0 0 0 0 0 0 0 0 0 0 0 0 -0 -0 -0 0 -0 -0 -0 -0 -0 -0 nan
nan -0 -0 0 -0 -1 -1 -0 -0 -0 -0 -0 -0 -0 -0 -0 0 0 0 0 0 0 0 0 0 0 0 0 0 0 0 0 0 -0 -0 -0 -0 0 0 0 0 -0 -0 nan
nan -0 -0 -0 -1 -1 -0 -0 -0 -0 -0 0 -0 0 0 0 0 0 0 0 1 1 0 0 0 0 0 0 0 0 0 0 0 -0 -0 -0 0 0 0 -0 -0 0 -0 nan
nan 0 0 0 -0 -1 -1 -0 -0 0 0 0 0 0 0 0 0 0 0 0 0 0 0 0 0 0 0 0 0 0 0 0 -0 0 0 0 0 -0 0 0 -0 -0 -0 nan
nan 0 0 -0 -1 -1 -1 -1 -0 0 0 0 0 0 0 0 0 0 0 0 0 0 0 0 0 0 0 0 0 0 0 0 0 0 0 0 0 0 -0 0 0 0 0 nan
nan nan nan nan nan nan nan nan nan nan nan nan nan nan nan nan nan nan nan nan nan nan nan nan nan nan nan nan nan nan nan nan nan nan nan nan nan nan nan nan nan nan nan nan
Wind_Speed
4 4 4 9 5 5 6 4 6 9 9 5 8 8 9 18 19 16 19 17 16 21 32 40 48 47 41 40 45 43 39 35 37 41 42 38 33 30 25 22 19 15 16 15
5 3 5 7 6 5 6 7 12 10 6 4 9 11 8 7 9 20 17 18 18 19 21 32 43 45 47 47 49 44 46 46 42 49 44 41 37 35 30 26 20 16 17 16
3 6 7 5 7 6 6 7 6 10 10 4 7 7 6 4 9 16 13 13 11 16 21 25 38 44 44 49 51 53 53 55 51 50 48 44 40 37 31 26 23 19 18 17
4 5 5 6 5 2 6 4 9 13 10 6 8 5 5 7 7 5 14 19 18 15 16 22 33 41 49 48 49 48 51 56 50 50 49 47 43 39 32 27 22 19 21 17
7 5 7 4 5 2 9 11 8 7 7 4 6 2 7 7 7 14 13 25 22 14 13 20 31 39 44 44 48 48 50 47 48 49 49 45 42 31 26 21 19 19 20 18
6 6 3 3 10 4 10 4 4 4 3 2 4 6 5 4 8 14 14 21 14 6 11 18 25 32 41 42 30 36 50 41 45 46 47 39 33 25 15 13 14 24 24 19
8 6 6 2 7 3 9 6 4 6 5 6 6 2 6 8 8 9 10 14 12 2 12 15 24 33 38 36 40 38 41 44 47 41 30 23 28 23 9 13 22 26 25 25
4 9 5 5 2 5 4 3 2 3 5 5 7 7 5 5 7 13 17 14 19 16 9 13 18 27 32 38 39 36 40 37 41 26 13 7 3 15 24 23 21 22 20 19
5 6 5 4 4 2 5 5 2 3 4 3 3 2 5 9 10 14 18 26 27 25 14 6 10 15 16 23 23 23 20 23 25 17 15 11 18 25 18 8 12 17 17 20
1 6 3 7 2 4 2 6 2 3 5 5 6 3 5 13 13 12 12 17 21 21 22 21 17 9 7 15 16 10 9 8 11 8 25 10 13 10 11 11 14 16 18 19
1 2 7 4 2 2 5 4 3 4 1 2 5 4 4 6 9 7 10 14 18 21 20 18 16 17 17 17 18 18 12 9 11 11 10 11 12 13 12 13 13 14 17 17
1 3 5 7 6 3 3 2 3 3 3 2 1 5 4 5 6 9 9 12 17 20 22 17 16 19 17 18 18 17 15 15 13 13 13 12 12 11 12 13 13 14 16 17
2 1 5 9 6 5 4 4 2 1 2 3 2 5 3 6 9 11 11 13 17 18 16 13 15 18 18 17 17 18 17 16 16 15 16 18 16 14 13 12 12 12 12 11
1 2 5 5 7 0 7 13 4 1 1 1 3 5 8 5 4 6 8 11 13 13 13 14 17 19 19 19 18 17 17 15 15 14 13 12 11 9 8 8 7 7 7 8
3 3 3 7 13 6 8 10 8 2 3 2 2 2 5 6 1 3 7 9 13 14 15 17 18 18 17 18 18 17 16 14 11 9 8 7 6 4 3 3 5 6 8 9
4 3 3 6 3 2 6 7 5 2 2 0 1 1 2 3 1 4 4 7 10 12 14 16 16 16 15 14 14 13 13 10 6 6 5 4 2 1 3 4 6 7 9 10
1 1 2 5 5 7 3 4 2 1 1 2 3 2 4 0 1 2 4 7 10 11 13 14 13 12 12 11 10 10 9 8 6 5 4 2 1 2 4 5 7 9 10 11
4 3 2 4 7 2 4 4 3 4 3 3 2 2 5 6 4 6 8 8 9 11 13 13 12 11 10 8 7 7 6 4 2 1 1 2 3 6 8 10 11 12 12 12
6 4 0 0 2 6 2 3 3 3 4 6 4 4 4 8 1 4 10 14 12 12 12 11 10 7 6 6 5 4 3 1 1 2 3 4 6 9 11 13 13 12 13 16
4 4 3 1 1 4 4 1 2 2 4 7 9 8 9 7 1 4 6 17 16 15 14 14 12 9 7 7 6 3 2 1 1 2 4 8 11 13 12 12 12 14 18 19
3 2 5 3 3 8 7 4 4 1 6 9 11 11 14 6 8 4 7 17 18 17 16 15 13 11 10 8 5 3 2 1 3 6 10 12 11 11 12 13 15 18 20 23
7 6 4 2 2 7 8 5 6 5 4 7 8 9 11 11 8 10 12 17 19 19 18 15 13 11 9 7 4 2 3 5 7 10 11 11 11 11 12 15 17 20 23 21
2 6 5 8 6 6 7 9 7 6 6 9 9 8 9 9 12 15 17 18 19 18 17 14 9 9 9 6 3 3 6 7 9 11 11 11 12 13 16 19 21 20 18 20
3 5 3 1 6 12 15 12 12 11 11 10 9 8 10 9 14 17 19 20 21 19 17 14 11 10 8 6 3 5 6 8 11 12 12 12 15 17 18 17 17 18 20 21
7 5 5 7 8 12 18 15 15 13 11 11 9 9 9 12 14 17 20 21 21 20 17 14 11 10 7 5 4 6 8 9 11 11 12 13 14 14 15 16 17 18 19 20
14 8 7 11 14 10 14 15 16 19 17 12 10 9 11 13 14 18 20 20 22 22 19 16 13 10 7 5 5 7 9 10 10 9 10 11 12 14 15 17 16 15 18 21
Wind_Direction
353 25 286 274 261 257 276 269 270 273 263 267 262 264 252 268 283 285 287 286 280 247 245 229 220 222 220 216 208 206 205 208 211 212 206 204 202 198 202 204 204 204 203 203
6 255 262 278 281 293 297 279 285 286 270 276 274 279 254 250 255 270 284 289 286 270 244 229 224 215 221 216 206 207 212 209 216 213 209 207 199 198 202 202 210 205 202 210
211 261 306 312 309 307 287 269 279 274 311 247 281 279 251 275 267 274 288 291 294 273 260 232 217 220 211 215 210 209 210 214 214 213 211 209 200 202 204 201 202 208 209 208
251 277 296 301 281 272 309 248 297 303 320 308 5 290 318 267 287 8 336 324 314 312 244 230 216 212 212 214 211 213 213 219 218 216 214 210 209 206 211 204 204 207 214 214
266 295 317 307 276 357 259 319 311 311 306 19 358 307 277 345 344 335 322 319 317 313 225 218 213 210 204 200 207 213 216 220 220 213 213 209 209 215 219 207 214 189 213 218
257 282 257 261 302 273 288 338 18 19 39 42 347 353 303 345 312 316 312 329 327 304 202 211 218 207 203 202 202 224 223 232 220 211 209 208 219 216 191 220 219 219 209 211
329 311 298 290 320 337 41 11 348 354 8 1 15 310 278 296 309 309 313 344 5 67 183 188 197 205 193 198 207 219 223 227 229 223 219 218 229 202 274 212 236 221 216 202
25 328 353 341 254 285 28 90 64 285 355 310 349 339 328 304 321 14 21 32 49 60 140 178 193 202 195 204 205 219 225 226 229 223 217 192 208 252 257 232 227 223 217 208
5 281 303 235 289 41 320 46 174 159 198 309 261 220 284 348 28 5 15 38 43 59 78 116 193 203 207 200 208 220 220 214 208 206 226 252 232 238 233 214 197 212 208 211
250 299 264 299 10 38 54 160 59 10 357 336 311 341 316 341 0 340 20 26 53 61 64 66 73 90 132 181 198 201 238 237 243 191 193 216 199 173 159 178 187 202 211 215
110 134 289 335 47 307 344 3 56 114 11 337 310 314 347 336 344 2 17 49 63 67 70 75 85 89 81 92 104 107 101 112 139 132 138 139 150 160 174 186 197 205 209 217
235 164 287 263 285 261 228 314 83 96 265 258 202 280 8 8 1 46 63 62 80 74 71 75 98 99 109 114 110 118 128 136 133 129 134 143 150 163 180 189 194 203 212 206
188 331 330 348 355 7 2 310 33 229 108 167 85 292 57 26 31 39 71 80 79 81 93 106 107 108 111 112 120 121 129 131 132 135 139 139 143 151 157 164 176 189 204 218
54 168 177 214 237 4 310 311 349 52 95 268 222 289 325 344 41 49 63 80 90 102 115 114 109 107 110 113 117 124 130 134 135 137 139 141 142 151 163 176 191 215 235 253
81 265 216 256 262 261 261 270 296 277 280 157 267 302 308 304 347 67 112 108 106 109 110 106 105 106 112 116 119 119 118 118 118 121 122 127 139 158 185 236 260 271 280 281
356 278 356 288 308 186 271 261 240 286 323 272 120 292 295 315 65 112 125 125 122 120 120 118 114 112 113 114 118 123 124 125 126 127 129 136 162 247 286 280 286 291 291 289
303 212 22 271 331 313 290 231 220 160 219 241 226 213 156 327 192 237 173 161 151 148 146 139 131 126 123 125 127 136 137 132 134 134 140 165 235 294 302 309 309 307 304 300
194 169 155 274 340 250 267 320 191 159 220 232 209 188 190 178 196 220 212 203 179 169 162 156 150 143 135 129 135 142 137 137 138 118 25 349 333 327 326 322 317 315 312 310
175 142 108 31 270 289 276 205 204 175 267 191 181 155 166 156 179 256 215 204 205 192 181 173 167 158 144 140 149 150 143 178 327 344 338 327 322 321 318 316 319 319 318 316
98 71 116 117 111 246 246 237 146 94 290 200 171 176 165 164 72 256 217 195 196 189 186 181 176 174 170 161 163 185 210 233 316 322 313 315 314 313 317 318 320 319 321 318
140 168 196 207 255 284 242 223 139 103 245 180 196 192 180 186 214 283 190 181 189 186 181 178 173 172 172 173 185 206 176 280 309 312 317 316 312 312 313 313 312 313 314 316
172 158 195 132 190 267 189 121 171 219 181 187 196 204 210 225 244 184 175 178 178 175 172 174 176 180 182 177 197 242 285 311 313 318 317 313 311 303 299 301 306 311 314 313
243 193 188 184 212 252 199 246 245 230 213 211 214 220 218 209 185 176 174 178 180 180 177 180 200 188 176 181 214 293 306 308 315 319 317 314 305 301 303 307 310 312 310 309
254 179 208 46 243 243 265 245 244 232 228 220 226 232 231 218 195 186 183 183 183 185 188 188 194 191 186 188 240 297 310 316 319 315 310 307 306 307 310 313 314 312 312 312
210 161 202 256 259 270 263 257 241 231 215 210 221 233 237 223 209 203 191 189 190 190 191 196 201 198 196 209 272 304 312 317 316 312 312 314 316 318 318 318 316 314 314 316
201 209 211 245 244 231 251 241 235 220 212 216 217 222 224 226 224 209 203 197 193 190 193 198 201 203 210 236 281 302 315 319 318 319 318 319 323 325 328 328 325 320 313 315
Height
1507 1512 1513 1505 1502 1500 1500 1500 1499 1488 1480 1481 1478 1476 1472 1466 1462 1460 1460 1461 1461 1462 1464 1465 1468 1473 1478 1484 1490 1498 1503 1508 1509 1510 1510 1512 1517 1522 1526 1529 1529 1530 1535 1538
1512 1513 1501 1499 1497 1498 1497 1497 1491 1482 1476 1477 1474 1470 1466 1463 1459 1456 1455 1455 1455 1456 1458 1459 1464 1467 1472 1477 1485 1490 1495 1500 1500 1502 1507 1509 1513 1519 1523 1526 1528 1529 1532 1535
1513 1505 1499 1498 1498 1497 1494 1494 1489 1485 1474 1473 1471 1470 1461 1458 1455 1453 1453 1451 1450 1448 1448 1451 1457 1461 1468 1474 1480 1483 1487 1493 1491 1497 1502 1506 1511 1517 1519 1521 1525 1528 1532 1533
1509 1501 1500 1499 1496 1493 1496 1481 1481 1479 1479 1480 1479 1478 1468 1456 1454 1455 1452 1450 1445 1443 1441 1445 1451 1456 1461 1469 1478 1486 1490 1490 1490 1494 1498 1501 1504 1509 1510 1516 1519 1522 1531 1533
1512 1503 1501 1499 1492 1490 1490 1481 1481 1481 1483 1486 1484 1487 1475 1464 1462 1457 1451 1448 1441 1437 1437 1441 1446 1451 1457 1465 1473 1478 1482 1486 1489 1491 1495 1498 1503 1506 1509 1513 1519 1519 1528 1529
1507 1500 1499 1496 1490 1487 1484 1482 1484 1485 1489 1494 1492 1491 1482 1474 1468 1458 1453 1447 1437 1434 1436 1441 1446 1452 1455 1462 1464 1471 1475 1480 1487 1488 1491 1489 1497 1505 1509 1514 1514 1518 1521 1527
1514 1503 1497 1495 1496 1487 1488 1493 1502 1510 1505 1492 1494 1490 1486 1472 1467 1461 1454 1445 1439 1436 1438 1441 1445 1450 1455 1460 1463 1463 1471 1475 1482 1486 1489 1488 1497 1507 1505 1508 1508 1514 1519 1521
1532 1525 1502 1495 1497 1497 1496 1500 1507 1520 1514 1505 1491 1490 1482 1469 1465 1460 1456 1450 1445 1442 1444 1445 1449 1455 1458 1462 1464 1468 1472 1476 1480 1480 1487 1498 1503 1498 1501 1506 1506 1513 1516 1522
1534 1524 1501 1498 1495 1495 1496 1508 1508 1512 1512 1514 1492 1476 1477 1467 1465 1463 1460 1456 1452 1450 1450 1451 1453 1456 1460 1466 1471 1474 1475 1477 1476 1476 1491 1494 1495 1498 1502 1502 1507 1516 1518 1522
1525 1533 1505 1499 1494 1496 1497 1505 1507 1512 1509 1506 1497 1490 1485 1471 1470 1467 1466 1464 1462 1459 1458 1459 1460 1459 1463 1467 1470 1473 1478 1479 1479 1481 1483 1488 1490 1496 1500 1506 1511 1515 1520 1521
1523 1529 1515 1504 1501 1504 1505 1505 1505 1510 1510 1512 1516 1494 1483 1483 1477 1474 1472 1470 1467 1466 1465 1466 1468 1467 1467 1470 1472 1475 1478 1480 1483 1486 1489 1490 1494 1498 1504 1509 1513 1517 1521 1520
1522 1530 1531 1512 1500 1500 1502 1499 1503 1514 1519 1508 1509 1502 1484 1484 1480 1479 1476 1475 1473 1471 1470 1473 1474 1472 1472 1476 1476 1479 1482 1485 1488 1490 1492 1495 1498 1502 1507 1511 1514 1517 1519 1518
1522 1530 1537 1517 1507 1502 1504 1503 1503 1504 1509 1511 1519 1499 1484 1485 1483 1483 1481 1479 1477 1477 1477 1484 1481 1479 1479 1478 1481 1483 1487 1490 1492 1494 1496 1499 1503 1506 1509 1512 1515 1517 1518 1516
1522 1528 1530 1535 1521 1516 1514 1506 1502 1504 1512 1507 1507 1498 1486 1486 1488 1487 1486 1484 1483 1485 1488 1489 1486 1485 1484 1486 1487 1490 1493 1495 1496 1497 1500 1502 1505 1508 1510 1512 1514 1515 1515 1514
1525 1529 1527 1522 1515 1514 1512 1507 1503 1498 1496 1499 1497 1494 1492 1488 1488 1489 1491 1490 1490 1491 1491 1490 1490 1490 1491 1492 1493 1496 1497 1500 1501 1502 1504 1505 1507 1509 1509 1510 1512 1513 1513 1514
1527 1530 1527 1521 1508 1508 1509 1499 1496 1496 1494 1494 1495 1495 1492 1489 1487 1489 1489 1490 1491 1491 1492 1493 1493 1493 1495 1496 1498 1500 1503 1505 1507 1506 1506 1508 1509 1509 1510 1513 1513 1513 1513 1512
1529 1532 1530 1526 1514 1509 1505 1493 1492 1494 1494 1495 1496 1491 1492 1492 1490 1489 1489 1491 1491 1492 1493 1494 1495 1497 1498 1500 1501 1503 1504 1505 1506 1507 1508 1509 1510 1510 1512 1512 1512 1512 1511 1510
1527 1529 1532 1530 1519 1513 1496 1490 1488 1490 1491 1491 1491 1490 1491 1491 1492 1491 1490 1491 1492 1493 1494 1495 1497 1499 1501 1502 1503 1505 1506 1506 1507 1507 1508 1509 1509 1510 1510 1510 1509 1508 1507 1506
1521 1525 1529 1535 1530 1510 1491 1492 1492 1491 1489 1485 1488 1490 1491 1492 1493 1492 1490 1491 1492 1493 1495 1497 1499 1500 1501 1503 1505 1506 1507 1508 1508 1508 1508 1508 1509 1509 1509 1508 1507 1506 1505 1503
1520 1523 1527 1534 1531 1517 1493 1487 1488 1489 1500 1483 1484 1486 1489 1492 1498 1490 1488 1490 1492 1495 1496 1498 1500 1502 1504 1505 1507 1507 1508 1508 1508 1508 1508 1508 1508 1507 1507 1506 1505 1503 1502 1500
1525 1528 1530 1531 1536 1511 1489 1486 1487 1498 1498 1482 1482 1483 1485 1489 1488 1488 1487 1489 1493 1495 1498 1500 1501 1503 1505 1506 1507 1508 1508 1509 1509 1508 1508 1507 1506 1506 1505 1504 1502 1501 1498 1496
1513 1525 1529 1529 1529 1514 1482 1486 1490 1484 1480 1482 1483 1483 1483 1483 1484 1485 1488 1490 1493 1495 1498 1501 1503 1504 1505 1506 1508 1508 1508 1508 1508 1507 1506 1506 1505 1504 1502 1501 1499 1497 1494 1491
1510 1502 1506 1506 1500 1482 1480 1478 1478 1477 1478 1479 1481 1482 1482 1482 1482 1484 1486 1490 1493 1496 1498 1501 1503 1504 1505 1506 1506 1507 1507 1507 1507 1506 1505 1504 1503 1502 1500 1498 1495 1492 1490 1487
1495 1493 1496 1494 1479 1477 1476 1476 1476 1475 1475 1476 1477 1479 1480 1480 1481 1482 1484 1488 1492 1496 1498 1500 1502 1503 1504 1505 1506 1506 1506 1506 1505 1504 1503 1502 1501 1499 1497 1494 1492 1490 1487 1484
1491 1490 1489 1485 1475 1473 1471 1471 1472 1472 1473 1474 1475 1476 1477 1479 1479 1481 1482 1485 1489 1493 1497 1499 1501 1502 1504 1504 1505 1505 1505 1505 1504 1502 1501 1500 1498 1496 1494 1492 1489 1486 1484 1481
1478 1476 1482 1473 1464 1468 1466 1466 1466 1468 1469 1471 1472 1473 1473 1476 1478 1479 1481 1483 1486 1489 1494 1497 1500 1501 1502 1503 1503 1503 1503 1502 1501 1500 1499 1498 1496 1494 1491 1488 1486 1484 1481 1477